Regional Weather Roundup
Issued by NWS

Home | Current Version | Previous Version | Text Only | Print | Product List | Glossary Off
Versions: 1 2 3 4 5 6 7 8 9 10 11 12 13 14 15 16 17 18 19 20 21 22 23 24 25 26 27 28 29 30 31 32 33 34 35 36 37 38 39 40 41 42 43 44 45 46 47 48 49 50

000
ASUS43 KLSX 281959
RWRMO

WEATHER SUMMARY FOR MISSOURI
NATIONAL WEATHER SERVICE SPRINGFIELD MO
300 PM CDT FRI APR 28 2017

NOTE: "FAIR" INDICATES FEW OR NO CLOUDS BELOW 12,000 FEET WITH NO
       SIGNIFICANT WEATHER AND/OR OBSTRUCTIONS TO VISIBILITY.
       CURRENT SKY AND/OR WEATHER CONDITIONS ARE NOT AVAILABLE FOR
       CHILLICOTHE AND FARMINGTON.

MOZ001>031-035>038-043-044-053-054-282100-
...NORTHERN AND WESTERN MISSOURI...

CITY           SKY/WX    TMP DP  RH WIND       PRES   REMARKS
KANSAS CTY INT DRZL/FOG  55  54  96 N12       29.70R VSB 1/4
KANSAS C DTWN  CLOUDY    62  58  86 S5        29.69S
LEE`S SUMMIT   CLOUDY    61  56  83 S13       29.70S
ST JOSEPH      CLOUDY    48  47  96 NE12      29.73S
CHILLICOTHE      N/A     51  49  92 N7        29.74R
KIRKSVILLE     CLOUDY    49  32  52 N10       29.76R HAZE

$$
MOZ066>068-077>081-088>096-101>105-282100-
...SOUTHWEST MISSOURI...

CITY           SKY/WX    TMP DP  RH WIND       PRES   REMARKS
SPRINGFIELD    CLOUDY    62  59  90 S7        29.70R
JOPLIN         CLOUDY    68  62  81 VRB3      29.69R
BRANSON        CLOUDY    61  61 100 E7        29.71F

$$
MOZ032>034-039>042-045>050-055>058-069>072-282100-
...CENTRAL MISSOURI...

CITY           SKY/WX    TMP DP  RH WIND       PRES   REMARKS
COLUMBIA       CLOUDY    60  56  86 SE13      29.73R
JEFFERSON CITY CLOUDY    61  55  81 E6        29.74R
ROLLA          CLOUDY    57  57 100 E8        29.73S FOG
SEDALIA        CLOUDY    62  58  86 SE13      29.72R
OSAGE BEACH    LGT RAIN  58  57  97 E6        29.73S FOG

$$
MOZ051-052-059>065-282100-
...EAST CENTRAL MISSOURI...

CITY           SKY/WX    TMP DP  RH WIND       PRES   REMARKS
ST LOUIS INTL  TSTM      57  54  89 E9        29.78R FOG
SPIRIT OF STL  LGT RAIN  56  56 100 E5        29.78R FOG
ST CHARLES     LGT RAIN  56  55  97 E12       29.78R FOG

$$
MOZ072>076-082>087-097>100-106>115-282100-
...SOUTH CENTRAL AND SOUTHEAST MISSOURI...

CITY           SKY/WX    TMP DP  RH WIND       PRES   REMARKS
CAPE GIRARDEAU CLOUDY    67  61  81 CALM      29.75R
FARMINGTON     LGT RAIN  61  60  97 S6        29.76R
POPLAR BLUFF   CLOUDY    67  65  93 SW3       29.74S
WEST PLAINS    CLOUDY    61  60  97 S3        29.75R FOG

$$




USA.gov is the U.S. government's official web portal to all federal, state and local government web resources and services.